EHI
92 91 88 85 84 80 75 72 68 64 60 51 42 39 37 33 28 25 23 20 17 15 13 12 15 16 14 10 6 5 3 2 3 3 2 1 0 1 1 1 0 2 4
92 89 87 85 83 80 75 72 68 64 57 48 41 39 38 34 27 26 25 20 15 13 12 13 16 17 15 12 7 5 4 3 3 3 1 0 0 0 1 1 1 2 4
88 87 84 82 79 75 73 72 70 64 56 46 39 35 34 29 24 25 26 21 15 13 14 16 18 18 15 11 7 5 4 4 3 3 1 0 0 0 0 0 1 2 5
84 84 82 78 72 68 68 69 68 62 55 46 38 32 26 21 19 23 26 22 15 13 15 17 19 19 15 10 7 6 5 4 3 3 2 1 0 0 0 0 0 2 3
80 81 81 76 68 63 62 64 63 57 51 44 39 33 24 18 18 21 23 20 15 12 14 18 22 22 19 14 10 8 6 4 3 4 3 1 0 0 0 0 0 0 1
74 80 81 75 67 60 57 57 56 52 46 41 36 29 24 20 17 17 18 17 15 13 13 18 24 25 23 21 17 11 7 5 5 6 5 2 0 0 0 0 0 0 0
70 76 76 70 63 58 55 54 53 48 43 40 32 24 21 19 15 14 15 15 14 13 13 19 26 25 23 24 22 16 10 7 7 7 5 2 1 1 1 1 0 0 0
66 68 66 60 55 53 55 56 52 46 40 36 30 24 20 19 16 15 16 15 12 13 17 25 29 27 21 21 23 21 16 12 10 7 5 3 2 2 2 2 1 0 0
58 58 56 50 46 50 55 56 50 43 37 31 26 22 21 22 20 17 15 16 15 15 23 30 32 30 24 23 25 24 21 18 15 11 9 6 4 3 4 4 3 1 0
49 51 51 46 44 48 53 53 48 41 34 26 19 16 19 22 20 16 15 18 19 20 24 29 31 30 29 27 27 24 21 20 19 14 12 10 8 5 5 5 4 1 0
46 49 50 46 44 46 48 49 48 41 32 24 17 13 15 18 18 15 16 20 22 20 21 25 27 28 28 28 25 20 17 17 17 13 10 10 9 6 5 6 4 1 0
49 50 50 48 44 42 43 44 44 40 32 25 19 16 17 18 18 17 18 22 22 19 17 18 20 22 24 26 23 17 14 14 15 13 9 8 7 5 4 4 3 1 0
54 54 54 51 45 40 39 37 37 36 32 26 22 21 21 21 21 20 20 23 23 19 18 17 17 17 20 23 22 17 14 15 15 14 11 8 6 5 5 4 2 1 0
58 58 58 55 49 43 39 34 31 31 29 26 24 25 26 25 24 22 21 23 23 22 21 21 19 17 17 19 19 17 15 15 15 13 11 8 7 7 6 4 2 1 1
58 58 59 59 55 49 42 35 31 31 31 29 28 29 30 29 27 23 22 23 23 23 24 23 20 16 14 14 14 13 12 12 12 10 8 7 6 5 5 4 2 1 1
58 58 61 63 60 52 45 40 36 35 33 31 30 31 32 31 27 24 24 27 27 26 26 25 21 15 12 9 7 7 9 10 10 9 8 5 3 2 2 1 1 0 1
59 60 61 63 59 52 47 43 38 35 32 30 28 28 29 29 26 25 27 31 32 31 30 28 23 17 11 5 2 3 6 9 9 9 8 5 2 1 0 0 0 0 0
59 59 59 58 55 48 44 39 33 30 29 27 25 25 26 26 26 28 30 33 35 34 32 30 26 20 12 5 1 1 5 8 9 9 8 6 4 2 1 0 0 0 0
56 55 54 53 49 43 39 35 31 27 24 22 22 24 25 25 26 29 32 33 34 32 30 28 26 21 13 5 1 1 4 7 8 7 6 6 4 2 0 0 0 0 0
50 49 49 47 43 38 36 35 32 26 22 20 22 24 25 23 23 27 31 32 31 28 25 22 21 18 13 5 1 1 4 6 6 5 4 4 2 1 0 0 0 0 0
41 42 43 41 37 33 34 34 30 25 23 23 22 23 23 21 21 25 28 27 26 24 21 18 17 15 11 5 1 1 3 5 4 3 3 3 1 0 0 0 0 0 0
33 36 36 34 30 28 29 29 27 24 23 22 20 18 17 17 18 21 22 22 21 20 19 17 15 12 8 4 1 0 1 3 3 3 3 2 1 0 0 0 0 0 0
32 33 31 28 25 23 22 23 22 21 20 18 15 14 13 14 15 16 16 17 17 16 15 12 10 7 5 3 1 0 0 1 2 3 2 1 0 0 0 0 0 0 0
31 30 27 23 20 17 15 15 14 13 14 13 11 11 11 12 11 10 10 11 12 11 8 5 4 3 3 3 2 1 0 0 1 2 1 0 0 0 0 0 0 0 0
25 24 21 17 14 10 8 8 7 9 12 11 9 9 10 10 6 4 3 5 6 5 3 1 1 1 1 2 2 1 0 0 0 0 0 0 0 0 0 0 0 0 0
20 19 17 13 9 6 4 4 6 9 12 11 8 8 9 7 3 1 1 2 2 1 0 0 0 0 0 1 1 1 0 0 0 0 0 0 0 0 0 0 0 0 0
Wind_Speed
12 11 11 11 11 10 10 9 9 9 8 6 6 5 4 4 3 4 5 6 5 5 3 3 4 2 1 2 3 2 2 1 1 1 1 1 3 3 3 3 3 4 5
13 11 10 10 10 10 10 10 9 10 9 6 5 4 4 4 4 3 5 6 5 5 5 3 3 3 2 2 2 2 1 2 2 1 1 1 1 2 4 3 4 4 4
14 13 12 11 10 10 10 9 9 9 9 8 5 4 4 3 4 4 4 5 6 5 4 5 4 4 4 3 3 3 3 2 1 1 1 1 2 1 1 3 3 3 3
14 14 12 11 11 10 10 9 9 8 8 8 7 8 6 5 5 5 4 5 5 6 5 5 4 3 3 4 5 4 3 2 2 1 1 1 2 1 0 2 2 4 4
13 14 13 11 10 10 9 8 8 8 8 8 7 7 6 5 3 4 5 6 5 6 6 6 5 5 3 4 4 3 2 2 2 2 2 2 2 2 2 2 2 3 3
11 12 12 11 9 9 9 8 8 8 8 8 8 7 7 6 6 6 6 5 4 5 6 6 5 5 3 3 3 3 4 2 2 1 1 1 2 2 2 2 3 3 3
11 12 12 11 10 10 9 9 9 8 8 8 8 7 7 6 7 6 6 6 5 5 6 6 5 4 4 4 4 3 3 4 3 2 2 1 1 1 1 1 1 1 2
11 11 11 10 10 9 9 9 9 8 8 8 7 6 6 5 5 6 5 6 5 5 6 6 6 5 5 5 4 3 4 3 3 4 2 2 2 2 1 1 1 1 1
12 11 11 10 9 9 9 9 9 7 7 7 6 6 6 6 5 5 5 4 4 4 7 7 6 6 5 4 4 3 3 3 3 3 3 3 3 2 1 1 1 1 1
12 12 11 10 9 8 8 8 8 7 6 6 6 6 6 6 5 5 5 4 4 4 5 6 6 5 5 4 4 3 3 3 3 2 2 2 2 2 1 1 1 1 1
11 11 10 9 9 8 8 8 8 7 6 6 6 5 5 6 6 5 5 4 4 4 4 4 5 5 5 5 4 4 3 4 3 3 3 3 2 2 2 1 1 2 1
11 11 11 9 9 8 8 7 7 7 6 6 6 5 5 5 5 5 5 5 5 4 4 4 4 5 5 5 5 5 4 4 4 3 3 2 3 2 2 2 2 2 2
11 10 10 9 8 7 7 7 7 7 7 6 6 5 5 5 5 5 5 5 5 4 4 4 4 4 4 5 5 4 3 3 3 3 3 2 2 2 2 2 2 2 3
11 10 9 8 7 6 6 6 5 6 6 6 6 6 5 4 4 4 5 4 4 4 4 4 3 3 3 3 4 4 3 2 2 2 2 1 1 1 2 2 2 2 2
11 10 9 8 7 6 6 5 5 5 4 4 5 5 4 4 4 3 4 4 4 4 3 3 2 2 2 2 3 3 4 3 2 2 2 2 2 3 2 0 1 1 1
10 10 9 8 6 6 5 5 4 4 4 4 4 4 4 4 4 4 4 4 4 3 4 3 3 2 2 1 2 2 3 3 3 2 2 2 3 4 4 3 3 3 1
9 8 8 7 5 5 4 4 4 4 4 3 3 3 4 4 4 4 4 3 3 4 4 4 4 3 2 3 3 3 2 3 2 2 2 1 2 3 2 2 3 4 4
8 7 6 6 5 4 4 4 4 4 3 3 3 3 4 4 4 3 4 3 3 3 4 4 4 4 3 4 4 4 3 3 3 3 3 3 4 3 2 2 3 3 4
8 6 6 6 5 4 3 3 3 3 3 3 3 3 3 4 4 4 4 4 5 4 4 4 4 5 4 4 3 4 3 4 5 5 5 5 5 5 4 3 3 4 4
8 7 6 6 5 4 4 4 3 3 3 2 3 3 3 4 4 4 5 5 5 5 5 6 5 6 5 6 5 4 3 5 6 6 7 10 8 8 6 4 4 4 3
8 8 7 6 5 5 5 5 5 4 4 4 4 4 4 4 4 4 5 5 6 7 7 7 7 7 7 8 9 7 4 5 5 5 5 6 9 10 9 7 5 3 2
8 8 7 6 6 6 5 6 5 5 5 6 6 6 6 5 5 6 5 5 6 7 7 7 7 6 6 8 9 10 8 7 7 6 5 5 9 10 9 7 7 6 4
8 7 7 7 6 6 6 6 5 5 6 8 8 7 8 7 6 6 6 5 5 5 5 5 6 6 6 7 11 11 11 10 8 7 8 7 7 7 6 7 7 5 4
7 7 7 7 7 7 6 6 5 6 7 8 7 7 8 9 9 7 6 6 5 5 5 5 6 6 6 5 5 5 7 9 8 6 6 5 5 4 4 5 4 4 5
7 7 7 7 7 6 6 6 6 6 8 8 8 8 9 10 11 11 10 9 8 6 5 5 5 6 6 5 6 6 5 4 4 3 2 3 3 4 4 4 4 5 5
8 8 8 8 7 7 7 6 5 6 8 8 7 7 8 8 9 10 12 18 15 18 17 13 10 9 9 9 10 10 9 7 5 4 4 5 5 5 5 5 5 5 5
Wind_Direction
148 145 154 157 159 159 162 169 170 162 159 163 173 180 180 171 166 169 166 167 178 179 201 154 157 180 168 156 151 151 166 205 184 132 149 180 182 182 181 195 174 181 172
143 150 156 159 163 166 168 172 173 169 171 171 171 180 178 176 174 174 169 178 177 181 191 168 176 171 165 153 137 124 151 228 181 163 157 191 223 225 199 181 192 183 171
156 157 162 165 168 170 173 176 174 172 174 169 171 180 168 170 171 175 178 183 182 191 190 173 191 173 178 170 182 178 194 222 195 198 181 169 197 221 230 200 187 171 173
156 158 163 169 170 170 173 169 168 170 175 173 181 180 182 186 184 176 178 179 189 188 187 183 184 188 194 163 194 192 192 202 216 211 208 191 139 154 246 262 191 183 186
153 157 162 165 164 167 166 165 165 171 175 182 188 185 191 189 181 176 177 180 189 195 193 186 187 193 192 178 196 163 199 214 223 218 209 202 184 212 189 219 214 201 192
147 150 152 153 159 163 162 163 165 172 176 183 188 190 195 191 187 190 185 188 187 193 192 188 185 190 190 177 174 169 199 232 264 277 266 186 198 233 224 204 213 203 200
142 145 151 155 161 164 162 162 165 173 179 185 191 194 198 192 197 197 193 194 188 188 191 189 182 190 188 181 178 182 205 206 223 244 272 279 257 253 276 260 242 215 197
138 143 148 152 159 161 159 160 166 174 180 184 189 192 193 196 201 204 201 198 192 183 181 178 182 193 192 192 178 185 201 198 206 230 241 287 282 274 270 276 292 278 258
137 142 147 151 155 155 155 158 162 166 173 178 182 190 197 200 199 196 205 198 189 185 173 173 182 191 191 187 174 204 206 179 195 229 223 236 266 263 270 286 275 254 266
142 140 143 145 145 147 147 153 157 162 168 175 185 186 191 190 193 198 200 193 189 180 166 171 181 184 182 184 186 206 194 180 198 226 223 214 272 283 260 254 282 283 251
139 136 137 137 140 140 144 149 152 159 166 172 179 179 183 186 190 193 190 179 169 167 173 181 183 181 183 186 194 217 194 189 206 220 211 207 250 300 312 297 269 267 268
130 132 134 134 137 140 144 149 154 161 165 165 168 175 180 178 182 185 178 166 165 171 177 185 190 189 186 185 193 213 205 192 206 217 226 218 225 230 275 305 305 290 271
130 129 129 132 136 139 142 147 158 160 163 164 165 167 177 178 181 176 171 167 164 167 173 179 188 193 188 189 194 201 213 200 199 201 207 209 234 231 246 261 286 305 298
132 132 130 131 132 135 137 143 151 153 159 165 167 169 174 173 173 170 169 165 162 165 174 177 181 187 189 189 187 189 205 209 198 184 170 159 192 228 245 256 262 272 286
137 135 137 132 136 137 139 146 147 150 155 163 166 167 167 163 162 160 155 155 159 168 160 156 162 176 182 185 175 181 188 186 176 154 141 143 108 79 68 335 324 296 289
138 138 134 133 136 139 146 146 150 147 151 164 167 159 163 161 159 153 147 151 158 160 152 153 157 163 188 168 151 173 175 158 163 160 144 129 107 103 103 92 67 59 47
132 130 131 133 138 147 147 146 146 143 144 150 151 146 153 161 160 157 148 151 156 162 160 154 145 133 85 94 123 146 147 131 135 142 140 145 100 105 112 110 95 67 57
127 126 129 134 138 136 139 138 148 149 151 151 154 154 155 158 150 145 142 141 126 122 122 121 122 114 94 104 120 126 131 111 96 91 94 96 63 47 46 80 84 76 60
111 110 109 105 102 103 113 128 133 131 132 141 147 148 150 149 146 145 140 134 127 118 112 108 102 93 78 76 106 128 130 112 96 81 68 74 72 44 42 74 86 81 75
100 97 93 90 86 80 84 90 104 107 108 117 124 127 130 133 137 135 129 122 120 113 101 86 80 82 73 64 76 114 120 111 101 85 69 62 63 49 47 64 78 76 51
100 98 91 87 80 75 80 80 69 67 73 75 80 90 99 109 113 114 115 113 110 106 101 91 77 66 63 66 67 75 86 100 99 94 81 68 68 63 58 61 70 70 48
100 101 95 86 78 77 80 80 70 59 66 75 78 76 74 82 93 97 100 106 113 110 105 98 89 73 63 62 71 77 75 81 89 89 85 84 81 73 64 62 56 46 41
91 93 96 92 82 76 79 82 75 74 78 78 78 80 79 73 74 82 88 100 105 107 108 105 98 86 76 70 73 79 81 82 89 93 100 98 89 83 75 63 52 46 44
88 89 91 89 80 73 75 81 86 87 87 87 85 85 83 76 65 62 62 65 67 90 96 96 98 92 78 68 71 85 88 90 92 97 104 100 81 72 66 60 52 55 49
88 86 87 89 86 82 80 80 88 100 99 96 91 87 83 82 72 62 51 57 49 56 83 87 91 95 87 62 67 80 77 76 81 85 108 97 83 75 68 64 56 52 42
91 88 84 85 84 84 82 81 88 101 107 102 97 95 95 94 94 91 75 56 61 61 65 70 84 79 83 84 72 66 62 60 56 59 72 70 63 62 62 62 61 56 45